Flag for South Korea Weather past 2 weeks in Seoul, South Korea

Now
52 °F

Light rain. Fog.


Feels Like: 49 °F
Forecast: 47 / 62 °F
Wind: 9 mph from North

Location: Seoul / Kimp'O International Airport

Current Time: Apr 20, 2015 at 1:26:37 AM

Latest Report: Apr 20, 2015 at 1:00 AM


Visibility: 3 mi

Pressure: 29.65 "Hg

Humidity: 82%

Dew point: 46 °F

Location of SeoulLocation

Historic Weather in Seoul — Graph

°F

Seoul temperature yesterday

Maximum temperature yesterday: 63 °F (at 8:00 AM)
Minimum temperature yesterday: 52 °F (at 11:00 PM)
Average temperature yesterday: 58 °F

Past Weeks' High & Low Weather Summary

 TemperatureHumidityPressure
High73 °F (Apr 18, 4:00 PM)88% (Apr 19, 7:00 PM)30.33 "Hg (Apr 19, 7:00 PM)
Low34 °F (Apr 8, 5:00 AM)7% (Apr 18, 4:00 PM)29.65 "Hg (Apr 19, 4:00 PM)
Average51 °F51%30.04 "Hg
* Reported Midnight between Apr 4 and Apr 5 — Midnight between Apr 19 and Apr 20, Seoul, Weather by CustomWeather, © 2015

Note: Actual official high and low records may vary slightly from our data, if they occured in-between our weather recording intervals... More about our weather records

Advertising

Seoul weather history for previous 24 hours

 ConditionsComfort  
Time TempWeatherWind HumidityBarometerVisibility
12:00 AM
Mon, Apr 20
52 °FLight rain. Fog.12 mph82%29.65 "Hg2 mi
11:00 PM
Sun, Apr 19
52 °FLight rain. Fog.10 mph88%29.68 "Hg2 mi
10:00 PM54 °FLight rain. Fog.9 mph82%29.68 "Hg3 mi
9:00 PM54 °FLight rain. Fog.6 mph88%29.68 "Hg3 mi
8:00 PM55 °FLight rain. Fog.5 mph82%29.68 "Hg2 mi
7:00 PM55 °FLight rain. Fog.8 mph88%29.65 "Hg2 mi
6:00 PM57 °FLight rain. Fog.6 mph82%29.65 "Hg2 mi
5:00 PM59 °FDrizzle. Fog.6 mph77%29.68 "Hg2 mi
4:00 PM59 °FFog.6 mph77%29.65 "Hg2 mi
3:00 PM59 °FLight rain. Fog.8 mph82%29.68 "Hg1 mi
2:00 PM57 °FLight rain. Fog.6 mph82%29.71 "Hg1 mi
1:46 PM57 °FLight rain. Fog.3 mph82%29.71 "Hg1 mi
1:00 PM59 °FLight rain. Fog.3 mph77%29.74 "Hg3 mi
12:00 PM57 °FRain. Fog.7 mph72%29.77 "Hg3 mi
11:00 AM57 °FLight rain. Mostly cloudy.6 mph63%29.80 "Hg4 mi
10:00 AM63 °FMostly cloudy.8 mph39%29.80 "HgN/A
9:00 AM63 °FMostly cloudy.7 mph42%29.80 "HgN/A
8:00 AM63 °FMostly cloudy.6 mph39%29.80 "HgN/A
7:00 AM61 °FMostly cloudy.3 mph48%29.83 "HgN/A
6:00 AM59 °FMostly cloudy.2 mph51%29.83 "HgN/A
5:00 AM61 °FMostly cloudy.7 mph39%29.83 "HgN/A
4:00 AM61 °FMostly cloudy.9 mph29%29.83 "HgN/A
3:00 AM59 °FMostly cloudy.3 mph48%29.83 "HgN/A
2:00 AM59 °FMostly cloudy.1 mph48%29.86 "HgN/A
1:00 AM59 °FPartly cloudy.1 mph48%29.86 "HgN/A
Weather by CustomWeather, © 2015

See weather overviewHow to use our weather pages